TimePST,TemperatureF,Dew PointF,Humidity,Sea Level PressureIn,VisibilityMPH,Wind Direction,Wind SpeedMPH,Gust SpeedMPH,PrecipitationIn,Events,Conditions,WindDirDegrees,DateUTC
12:15 AM,57.2,48.2,72,30.13,10.0,Calm,Calm,-,N/A,,Overcast,0,2013-02-03 08:15:00
12:35 AM,59.0,48.2,67,30.14,10.0,Calm,Calm,-,N/A,,Overcast,0,2013-02-03 08:35:00
12:55 AM,59.0,50.0,72,30.13,10.0,Calm,Calm,-,N/A,,Mostly Cloudy,0,2013-02-03 08:55:00
1:15 AM,57.2,50.0,77,30.14,10.0,Calm,Calm,-,N/A,,Overcast,0,2013-02-03 09:15:00
1:35 AM,57.2,50.0,77,30.14,10.0,Calm,Calm,-,N/A,,Light Drizzle,0,2013-02-03 09:35:00
2:15 AM,57.2,50.0,77,30.14,10.0,Calm,Calm,-,N/A,,Overcast,0,2013-02-03 10:15:00
2:35 AM,59.0,51.8,77,30.13,10.0,Calm,Calm,-,N/A,,Overcast,0,2013-02-03 10:35:00
2:55 AM,57.2,51.8,82,30.12,10.0,NNW,3.5,-,N/A,,Overcast,330,2013-02-03 10:55:00
3:15 AM,57.2,53.6,88,30.12,10.0,WNW,3.5,-,N/A,,Overcast,290,2013-02-03 11:15:00
3:35 AM,57.2,53.6,88,30.13,10.0,WNW,3.5,-,N/A,,Light Drizzle,290,2013-02-03 11:35:00
3:55 AM,57.2,53.6,88,30.12,10.0,WNW,3.5,-,N/A,,Overcast,300,2013-02-03 11:55:00
4:15 AM,57.2,53.6,88,30.12,10.0,NW,3.5,-,N/A,,Overcast,320,2013-02-03 12:15:00
4:35 AM,57.2,53.6,88,30.12,10.0,Calm,Calm,-,N/A,,Overcast,0,2013-02-03 12:35:00
4:55 AM,57.2,53.6,88,30.12,10.0,Calm,Calm,-,N/A,,Overcast,0,2013-02-03 12:55:00
5:15 AM,57.2,53.6,88,30.11,10.0,East,3.5,-,N/A,,Overcast,80,2013-02-03 13:15:00
6:47 AM,57.2,53.6,88,30.11,15.0,Calm,Calm,-,N/A,,Mostly Cloudy,0,2013-02-03 14:47:00
7:47 AM,57.2,53.6,88,30.12,20.0,Calm,Calm,-,N/A,,Mostly Cloudy,0,2013-02-03 15:47:00
8:47 AM,62.6,51.8,68,30.12,20.0,Calm,Calm,-,N/A,,Mostly Cloudy,0,2013-02-03 16:47:00
10:47 AM,71.6,37.4,29,30.14,25.0,Calm,Calm,-,N/A,,Partly Cloudy,0,2013-02-03 18:47:00
11:47 AM,75.2,44.6,34,30.07,25.0,West,6.9,-,N/A,,Scattered Clouds,260,2013-02-03 19:47:00
2:47 PM,69.8,44.6,40,30.03,25.0,West,11.5,-,N/A,,Mostly Cloudy,280,2013-02-03 22:47:00
6:47 PM,59.0,44.6,59,30.06,12.0,Calm,Calm,-,N/A,,Overcast,0,2013-02-04 02:47:00
8:15 PM,55.4,46.4,72,30.08,10.0,Calm,Calm,-,N/A,,Clear,0,2013-02-04 04:15:00
8:35 PM,55.4,46.4,72,30.08,10.0,Calm,Calm,-,N/A,,Clear,0,2013-02-04 04:35:00
8:47 PM,55.4,46.4,72,30.08,12.0,Calm,Calm,-,N/A,,Clear,0,2013-02-04 04:47:00
8:55 PM,55.4,46.4,72,30.08,10.0,Calm,Calm,-,N/A,,Clear,0,2013-02-04 04:55:00
9:15 PM,53.6,46.4,77,30.08,10.0,WNW,3.5,-,N/A,,Clear,300,2013-02-04 05:15:00
9:35 PM,53.6,46.4,77,30.08,10.0,WNW,3.5,-,N/A,,Clear,300,2013-02-04 05:35:00
9:55 PM,51.8,46.4,82,30.08,10.0,WNW,3.5,-,N/A,,Clear,300,2013-02-04 05:55:00
10:15 PM,51.8,46.4,82,30.09,10.0,Calm,Calm,-,N/A,,Clear,0,2013-02-04 06:15:00
10:35 PM,51.8,46.4,82,30.09,10.0,Calm,Calm,-,N/A,,Clear,0,2013-02-04 06:35:00
10:55 PM,51.8,46.4,82,30.08,10.0,Calm,Calm,-,N/A,,Clear,0,2013-02-04 06:55:00
11:15 PM,50.0,46.4,87,30.09,10.0,West,3.5,-,N/A,,Clear,280,2013-02-04 07:15:00
11:35 PM,50.0,46.4,87,30.08,10.0,Calm,Calm,-,N/A,,Clear,0,2013-02-04 07:35:00
11:55 PM,48.2,46.4,93,30.07,10.0,Calm,Calm,-,N/A,,Clear,0,2013-02-04 07:55:00